Miscellaneous Local Product
Issued by NWS North Platte, NE

Home | Current Version | Previous Version | Text Only | Print | Product List | Glossary On
Versions: 1 2 3 4 5 6 7 8 9 10 11 12 13 14 15 16 17 18 19 20 21 22 23 24 25 26 27 28 29 30 31 32 33 34 35 36 37 38 39 40 41 42 43 44 45 46 47 48 49 50
795
AXUS43 KLBF 232210
MISLBF


WESTERN AND NORTH CENTRAL NEBRASKA HOURLY WEATHER ROUNDUP
NATIONAL WEATHER SERVICE NORTH PLATTE NE
500 PM CDT MON MAY 23 2016

NOTE: "FAIR" INDICATES FEW OR NO CLOUDS BELOW 12,000 FEET WITH NO
SIGNIFICANT WEATHER AND/OR OBSTRUCTIONS TO VISIBILITY.

NOTE: STATIONS NOT REPORTING VARIABLES SUCH AS SKY/WEATHER OR
PRESSURE ARE PROVIDED BY RAWS AND APRS NETWORKS AND ARE NOT UNDER
NATIONAL WEATHER SERVICE QUALITY CONTROL.

...OBSERVATIONS IN AND NEAR THE EASTERN PANHANDLE OF NEBRASKA...

CITY           SKY/WX    TMP DP  RH WIND       PRES   REMARKS
PINE RIDGE     SUNNY     73  32  22 W15G23    29.77S
CHADRON        SUNNY     74  30  19 W15       29.76F
ALLIANCE       CLOUDY    69  30  23 W18G25    29.80R
SIDNEY         SUNNY     71  33  24 S15G22    29.85S
CRESCENT LAKE    N/A     71  28  20 NW8G16      N/A
BIG SPRINGS      N/A     77  33  20 SW3         N/A
$$

...OBSERVATIONS IN NORTHERN NEBRASKA AND FAR SOUTHERN SOUTH DAKOTA...

CITY           SKY/WX    TMP DP  RH WIND       PRES   REMARKS
WINNER         FAIR      77  48  35 S10       29.71F
VALENTINE      SUNNY     78  29  16 SW15      29.73F
THEDFORD       MOSUNNY   79  33  18 SW14G20   29.78S
AINSWORTH      SUNNY     77  36  22 SW16      29.75S
O`NEILL        SUNNY     79  49  35 W7        29.75S
ORD            PTSUNNY   76  55  48 S6        29.75S
BROKEN BOW     MOSUNNY   78  44  29 SW8       29.77S
BUTTE            N/A     78  49  35 SW8G15      N/A
CHAMBERS         N/A     80  51  36 MISG        N/A
EWING            N/A     78  57  48 SW7         N/A
$$

...OBSERVATIONS IN SOUTHWEST NEBRASKA AND FAR NORTHEAST COLORADO...

CITY           SKY/WX    TMP DP  RH WIND       PRES   REMARKS
WRAY           FAIR      77  36  22 SE13      29.83F
HOLYOKE        FAIR      79  34  19 SE6       29.83S
IMPERIAL       SUNNY     74  34  23 S5        29.81F
OGALLALA       SUNNY     75  31  19 N5        29.81S
NORTH PLATTE   SUNNY     77  39  25 W3        29.78F
MCCOOK         SUNNY     79  50  36 NE6       29.77F
LEXINGTON      SUNNY     77  52  41 CALM      29.77F
PAXTON           N/A     76  41  28 CALM        N/A
STAPLETON        N/A     79  46  30 CALM        N/A
GOTHENBURG       N/A     80  35  20 NW5         N/A
CALLAWAY         N/A     78  47  33 W5          N/A
$$

...OBSERVATIONS IN CENTRAL LINCOLN COUNTY AREA...

CITY           SKY/WX    TMP DP  RH WIND       PRES   REMARKS
N.P. AIRPORT   SUNNY     77  39  25 W3        29.78F
N.P. DOWNTOWN    N/A     79  33  19 W3G12       N/A
N.P. HILLCREST   N/A     76  33  21 NW9         N/A
$$

...SOME OBSERVATIONS FROM AROUND THE REGION...

CITY           SKY/WX    TMP DP  RH WIND       PRES   REMARKS
DENVER         LGT RAIN  59  45  59 NE16      29.89F
LARAMIE        CLOUDY    58  21  24 SW14G22   29.91S
CHEYENNE       CLOUDY    57  39  51 SW16      29.91R THUNDER
SCOTTSBLUFF    LGT RAIN  59  41  51 SE22G37   29.82F
RAPID CITY     SUNNY     76  24  14 W13G20    29.70F
BISMARCK       MOSUNNY   77  35  21 SW9       29.67S
PIERRE         MOSUNNY   78  46  32 S8        29.67S
SIOUX FALLS    CLOUDY    73  61  65 SW5       29.72F
OMAHA          LGT RAIN  70  63  78 SE20      29.79F
GRAND ISLAND   CLOUDY    74  66  76 S9        29.76F
KANSAS CITY    CLOUDY    68  63  84 NW6       29.86R
WICHITA        PTSUNNY   73  63  70 SE22G36   29.79F
OKLAHOMA CITY  LGT RAIN  72  69  90 SE13      29.84F
DALLAS         CLOUDY    82  69  64 S16       29.83F
AMARILLO       SUNNY     89  39  17 S15G22    29.79F
DODGE CITY     PTSUNNY   80  64  58 SE21      29.75F
HAYS           MOSUNNY   79  61  53 S16       29.75F
GOODLAND       SUNNY     76  43  30 E9        29.81F
$$




USA.gov is the U.S. government's official web portal to all federal, state and local government web resources and services.